sat.trackr.live / text

‹ back to catalog

STARLINK-31663

NORAD 59576 · 2024-076N

PAYLOAD ACTIVE UNKNOWN

§ Identity

Operator
Country
US
Launch date
2024-04-23
Launch site
AFETR
Launch vehicle
Mass (kg)
RCS (m²)

Purposes: comms

External: N2YO · Heavens-Above · Gunter

§ Orbital elements

Epoch: 2026-09-21T16:18:20.168640Z

Period
94.27 min
Inclination
43.0044°
Eccentricity
0.0001338
Mean motion
15.27580083 rev/d
Perigee alt
482.1 km
Apogee alt
484.0 km
Semi-major
6,861.2 km
B*
3.1586e-5
RAAN
342.4168°
Arg perigee
258.4796°
Mean anomaly
101.5906°
Rev number
13,647

§ Raw data

STARLINK-316631 59576U 24076N   26264.67940010  .00000607  00000+0  31586-4 0  99972 59576  43.0044 342.4168 0001338 258.4796 101.5906 15.27580083136475

JSON: /api/v1/satellites/59576 · /tle

For live sub-satellite position, see the globe view (requires WebGL).

§ Visibility from observer

Set your observer location to see the next 7 days of passes ≥ 10°. The values pass through the URL so the page stays shareable.

No JS? Fill the form by hand. The geolocation button needs JavaScript.